Onweer radar Meer informatie blitzortung!


Regen radar Meer informatie rain snow radar


Bezoek onze andere websites:


Het weer levert geen direct gevaar op.    Er zijn geen waarschuwingen afgegeven.

Select another period ( hide this area )

Eenheden Periode Custom range Directly to
Metrisch Engels Beide
Dagelijkse Wekelijkse Maandelijkse Jaarlijkse
use both date-selectors for a custom range
previous Dag
With this date

WeatherUnderground graphs for this period ( click here )


Dagelijkse Samenvatting Vrijdag 19 april 2019
Tijd Temp. ( °C ) Dew pt. ( °C ) Wind ( km/h ) van Windvlaag ( km/h ) Luchtdruk ( hPa ) Humid.( % ) Rainrate ( cm )
Hoog26,3 7,0 12,9 ZO ( 178/505 ) 17,7 1027,0 65 -
Gemiddeld18,7 5,4 2,0 Kalm #138/254 7,4 1025,9 44 -
Laag10,7 4,1 -   0,0 1024,6 25 -
Dagelijkse Tabular details for Vrijdag 19 april 2019
Tijd Temp. ( °C ) Dew pt. ( °C ) Wind ( km/h ) van Windvlaag ( km/h ) Luchtdruk ( hPa ) Humid.( % ) Rainrate ( cm )
00:02 15,1 4,8   Kalm   1024,6 50 -
00:07 15,1 4,8   Kalm   1024,6 50 -
00:12 15,0 4,7   Kalm   1024,6 50 -
00:17 14,9 4,3   Kalm   1024,6 49 -
00:22 14,9 4,3 6,4 ZO 1,6 1024,6 49 -
00:27 15,1 4,5   Kalm 1,6 1024,6 49 -
00:32 15,1 4,2   Kalm 11,3 1024,6 48 -
00:37 15,2 4,3   Kalm 11,3 1024,6 48 -
00:42 15,2 4,3   Kalm 4,8 1024,9 48 -
00:47 15,2 4,3   Kalm 4,8 1024,9 48 -
00:52 15,2 4,3   Kalm 6,4 1024,9 48 -
00:57 15,2 4,3   Kalm 6,4 1024,9 48 -
01:02 15,2 4,3   Kalm 6,4 1024,9 48 -
01:07 15,2 4,3 4,8 ZO 6,4 1024,9 48 -
01:12 15,2 4,3 1,6 ZO 6,4 1024,9 48 -
01:17 15,1 4,2 1,6 ZZO 6,4 1024,9 48 -
01:22 15,1 4,2   Kalm 6,4 1024,9 48 -
01:27 15,0 4,4 1,6 ZZO 6,4 1024,9 49 -
01:32 14,9 4,3   Kalm 4,8 1024,9 49 -
01:37 14,9 4,3   Kalm 4,8 1024,9 49 -
01:42 14,8 4,2   Kalm 4,8 1024,9 49 -
01:47 14,7 4,4   Kalm   1024,9 50 -
01:52 14,7 4,4   Kalm   1024,9 50 -
01:57 14,6 4,3   Kalm 3,2 1024,9 50 -
02:02 14,6 4,3   Kalm 3,2 1024,9 50 -
02:07 14,5 4,2   Kalm 3,2 1024,9 50 -
02:12 14,4 4,1   Kalm 3,2 1024,9 50 -
02:17 14,4 4,4   Kalm 6,4 1024,9 51 -
02:22 14,3 4,3   Kalm 6,4 1024,9 51 -
02:27 14,2 4,2   Kalm 6,4 1024,9 51 -
02:32 14,2 4,2   Kalm 3,2 1024,9 51 -
02:37 14,1 4,4   Kalm 6,4 1024,9 52 -
02:42 14,0 4,3   Kalm 6,4 1024,9 52 -
02:47 13,9 4,2   Kalm 6,4 1024,9 52 -
02:52 13,8 4,4   Kalm   1024,9 53 -
02:57 13,7 4,3   Kalm   1024,9 53 -
03:02 13,6 4,2   Kalm   1024,9 53 -
03:07 13,6 4,2   Kalm   1024,9 53 -
03:12 13,4 4,3   Kalm   1024,9 54 -
03:17 13,3 4,2   Kalm   1024,9 54 -
03:22 13,2 4,4   Kalm   1024,9 55 -
03:27 13,1 4,3   Kalm   1024,9 55 -
03:32 12,9 4,1   Kalm   1024,9 55 -
03:37 12,9 4,3   Kalm   1024,9 56 -
03:42 12,8 4,2   Kalm   1024,9 56 -
03:47 12,8 4,2   Kalm   1024,9 56 -
03:52 12,8 4,2   Kalm   1024,9 56 -
03:57 12,9 4,3   Kalm   1024,9 56 -
04:02 12,9 4,3 1,6 ZZO   1024,9 56 -
04:07 13,0 4,2   Kalm 4,8 1024,9 55 -
04:12 13,0 4,2   Kalm 4,8 1024,9 55 -
04:17 13,0 4,2   Kalm 4,8 1024,9 55 -
04:22 12,9 4,3   Kalm 4,8 1024,9 56 -
04:27 12,9 4,3   Kalm 1,6 1024,9 56 -
04:32 12,8 4,2   Kalm 1,6 1024,9 56 -
04:37 12,8 4,2   Kalm   1024,9 56 -
04:42 12,7 4,4   Kalm   1025,3 57 -
04:47 12,5 4,2   Kalm   1025,3 57 -
04:52 12,4 4,1   Kalm   1025,3 57 -
04:57 12,3 4,3   Kalm   1025,3 58 -
05:02 12,2 4,4   Kalm   1025,3 59 -
05:07 12,1 4,3   Kalm   1025,3 59 -
05:12 11,9 4,4   Kalm   1025,3 60 -
05:17 11,8 4,5   Kalm 3,2 1025,3 61 -
05:22 11,7 4,4 3,2 Zuiden 3,2 1025,6 61 -
05:27 11,6 4,6   Kalm 3,2 1025,6 62 -
05:32 11,4 4,6   Kalm 3,2 1025,6 63 -
05:37 11,3 4,5   Kalm 3,2 1025,6 63 -
05:42 11,3 4,5   Kalm 3,2 1025,6 63 -
05:47 11,2 4,6   Kalm 3,2 1025,6 64 -
05:52 11,1 4,5   Kalm 3,2 1025,6 64 -
05:57 11,1 4,8   Kalm   1025,6 65 -
06:02 11,0 4,7   Kalm   1025,6 65 -
06:07 10,9 4,6   Kalm   1025,6 65 -
06:12 10,9 4,6   Kalm   1025,6 65 -
06:17 10,8 4,5   Kalm   1025,6 65 -
06:22 10,8 4,5   Kalm   1025,6 65 -
06:27 10,7 4,4   Kalm   1025,6 65 -
06:32 10,7 4,4   Kalm   1025,6 65 -
06:37 10,7 4,4   Kalm   1025,6 65 -
06:42 10,7 4,4   Kalm   1025,6 65 -
06:47 10,7 4,4   Kalm   1026,0 65 -
06:52 10,7 4,4   Kalm   1026,0 65 -
06:57 10,7 4,4   Kalm   1026,0 65 -
07:02 10,7 4,4   Kalm   1026,0 65 -
07:07 10,7 4,4   Kalm   1026,0 65 -
07:12 10,8 4,5   Kalm   1026,0 65 -
07:17 10,8 4,5   Kalm   1026,0 65 -
07:22 10,8 4,5   Kalm 1,6 1026,0 65 -
07:27 10,9 4,6   Kalm 1,6 1026,3 65 -
07:32 10,9 4,4   Kalm   1026,3 64 -
07:37 11,0 4,5   Kalm   1026,3 64 -
07:42 11,1 4,5   Kalm   1026,3 64 -
07:47 11,2 4,6   Kalm   1026,3 64 -
07:52 11,3 4,7   Kalm   1026,3 64 -
07:57 11,4 4,6   Kalm   1026,3 63 -
08:02 11,5 4,7   Kalm   1026,3 63 -
08:07 11,6 4,8 1,6 ZO   1026,3 63 -
08:12 11,8 4,8   Kalm 4,8 1026,3 62 -
08:17 11,9 4,8   Kalm 4,8 1026,3 62 -
08:22 12,1 4,8   Kalm 4,8 1026,3 61 -
08:27 12,3 5,0   Kalm 4,8 1026,6 61 -
08:32 12,6 5,0   Kalm 6,4 1026,6 60 -
08:37 12,8 5,0   Kalm 6,4 1026,6 59 -
08:42 13,0 5,2 1,6 ZO 8,0 1026,6 59 -
08:47 13,4 5,1 6,4 OZO 8,0 1026,6 57 -
08:52 13,7 5,1 3,2 ZO 8,0 1026,6 56 -
08:57 13,9 5,0 1,6 ZO 8,0 1026,6 55 -
09:02 13,9 5,0   Kalm 11,3 1026,6 55 -
09:07 13,8 4,9   Kalm 11,3 1026,6 55 -
09:12 13,7 5,1   Kalm 11,3 1026,6 56 -
09:17 13,7 5,1   Kalm 11,3 1026,6 56 -
09:22 13,8 5,2   Kalm 6,4 1026,6 56 -
09:27 13,9 5,3   Kalm 6,4 1027,0 56 -
09:32 14,1 5,5   Kalm 3,2 1026,6 56 -
09:37 14,2 5,3   Kalm 3,2 1027,0 55 -
09:42 14,4 5,5   Kalm 3,2 1027,0 55 -
09:47 14,7 5,8   Kalm 3,2 1027,0 55 -
09:52 14,9 5,7   Kalm   1027,0 54 -
09:57 15,3 6,3   Kalm   1027,0 55 -
10:02 15,9 6,3   Kalm   1027,0 53 -
10:07 16,8 6,3 4,8 ZO   1027,0 50 -
10:12 17,5 6,4 3,2 OZO 9,7 1027,0 48 -
10:17 18,1 6,3   Kalm 9,7 1027,0 46 -
10:22 18,6 6,1 3,2 ZO 12,9 1027,0 44 -
10:27 18,9 6,0 4,8 ZZO 12,9 1027,0 43 -
10:32 19,2 6,3 1,6 ZO 12,9 1027,0 43 -
10:37 19,6 6,3 1,6 ZO 12,9 1027,0 42 -
10:42 19,8 6,5   Kalm 12,9 1027,0 42 -
10:47 20,0 6,3 4,8 NO 12,9 1027,0 41 -
10:52 20,2 6,5   Kalm 9,7 1027,0 41 -
10:57 20,4 6,7   Kalm 9,7 1027,0 41 -
11:02 20,7 6,6 1,6 OZO 9,7 1027,0 40 -
11:07 20,9 6,4 9,7 ZO 9,7 1027,0 39 -
11:12 20,9 6,4 1,6 ZO 11,3 1027,0 39 -
11:17 21,1 6,6 3,2 ZO 11,3 1027,0 39 -
11:22 21,4 6,5 4,8 ZZO 11,3 1027,0 38 -
11:27 21,6 6,3 1,6 ZO 11,3 1027,0 37 -
11:32 21,8 6,5 1,6 OZO 12,9 1027,0 37 -
11:37 22,1 6,3   Kalm 12,9 1027,0 36 -
11:42 22,3 6,5   Kalm 11,3 1027,0 36 -
11:47 22,6 6,8 4,8 ZO 11,3 1026,6 36 -
11:52 22,8 6,5 3,2 ZO 12,9 1026,6 35 -
11:57 23,0 6,3 6,4 ZO 12,9 1026,6 34 -
12:02 23,2 6,5 12,9 ZO 11,3 1026,6 34 -
12:07 23,3 6,6 3,2 ZZW 11,3 1026,6 34 -
12:12 23,5 6,3 1,6 ZO 14,5 1026,6 33 -
12:17 23,4 6,2 9,7 ZO 14,5 1026,6 33 -
12:22 23,4 6,2 1,6 OZO 16,1 1026,6 33 -
12:27 23,5 6,7   Kalm 16,1 1026,6 34 -
12:32 23,6 6,4 8,0 ZO 16,1 1026,6 33 -
12:37 23,6 6,4 8,0 ZO 16,1 1026,6 33 -
12:42 23,6 6,4 6,4 ZO 16,1 1026,6 33 -
12:47 23,6 6,4 9,7 Oosten 16,1 1026,6 33 -
12:52 23,7 6,9 1,6 NW 16,1 1026,6 34 -
12:57 23,8 6,6 4,8 ZZO 16,1 1026,6 33 -
13:02 24,1 6,8 3,2 ZO 16,1 1026,6 33 -
13:07 24,0 6,7 3,2 OZO 16,1 1026,6 33 -
13:12 23,9 6,6 9,7 OZO 12,9 1026,6 33 -
13:17 23,8 7,0 1,6 ZO 12,9 1026,6 34 -
13:22 24,1 6,8 4,8 OZO 16,1 1026,6 33 -
13:27 24,2 6,9 11,3 ZO 16,1 1026,6 33 -
13:32 24,2 6,5 4,8 NW 17,7 1026,6 32 -
13:37 24,3 7,0 3,2 NW 17,7 1026,6 33 -
13:42 24,5 6,7 4,8 ZO 17,7 1026,6 32 -
13:47 24,6 6,3 1,6 Noorden 17,7 1026,6 31 -
13:52 24,7 6,4 3,2 NW 12,9 1026,3 31 -
13:57 24,7 6,4 3,2 ZZO 12,9 1026,6 31 -
14:02 24,7 6,9   Kalm 12,9 1026,3 32 -
14:07 24,9 6,6 9,7 OZO 12,9 1026,3 31 -
14:12 24,9 6,1 9,7 ZZO 17,7 1026,3 30 -
14:17 24,9 6,6 8,0 ZZO 17,7 1026,3 31 -
14:22 24,9 6,1 8,0 Oosten 12,9 1026,3 30 -
14:27 25,1 6,3 8,0 OZO 12,9 1026,6 30 -
14:32 25,3 6,5 8,0 Oosten 14,5 1026,3 30 -
14:37 25,3 6,0 1,6 OZO 14,5 1026,3 29 -
14:42 25,2 5,9 9,7 ZO 12,9 1026,6 29 -
14:47 25,1 5,8 1,6 ZO 12,9 1026,3 29 -
14:52 25,2 5,9 6,4 NO 14,5 1026,3 29 -
14:57 25,3 6,5 4,8 ZO 14,5 1026,3 30 -
15:02 25,4 6,1 1,6 ONO 14,5 1026,3 29 -
15:07 25,5 6,7 3,2 WNW 14,5 1026,3 30 -
15:12 25,7 6,8 11,3 OZO 12,9 1026,3 30 -
15:17 25,9 6,5 3,2 OZO 12,9 1026,3 29 -
15:22 25,8 6,4 3,2 WNW 11,3 1026,3 29 -
15:27 25,8 5,9 3,2 ZZO 11,3 1026,0 28 -
15:32 25,7 6,3 4,8 NNW 12,9 1026,0 29 -
15:37 25,8 6,4 8,0 NNW 12,9 1026,0 29 -
15:42 26,0 6,1 4,8 Oosten 12,9 1026,0 28 -
15:47 25,8 5,9 6,4 WNW 12,9 1026,0 28 -
15:52 25,9 6,0   Kalm 12,9 1026,0 28 -
15:57 26,1 5,6   Kalm 12,9 1026,0 27 -
16:02 26,2 5,2 1,6 OZO 12,9 1026,0 26 -
16:07 26,2 5,2   Kalm 12,9 1026,0 26 -
16:12 26,3 5,8 1,6 ZW 9,7 1026,0 27 -
16:17 26,3 4,7 1,6 ZZO 9,7 1026,0 25 -
16:22 26,1 5,6 8,0 ZO 12,9 1026,0 27 -
16:27 25,9 5,5 4,8 OZO 12,9 1026,0 27 -
16:32 25,9 6,0   Kalm 12,9 1026,0 28 -
16:37 25,9 5,5 8,0 ZO 12,9 1026,0 27 -
16:42 25,9 5,5 1,6 ZO 12,9 1026,0 27 -
16:47 25,9 5,5 6,4 OZO 12,9 1026,0 27 -
16:52 25,8 4,8 4,8 ZO 11,3 1026,0 26 -
16:57 25,7 4,8 8,0 OZO 11,3 1026,0 26 -
17:02 25,6 5,2 6,4 ZZO 11,3 1025,6 27 -
17:07 25,6 5,2 8,0 OZO 11,3 1025,6 27 -
17:12 25,6 5,2 9,7 Zuiden 9,7 1025,6 27 -
17:17 25,5 5,1 4,8 ZO 9,7 1025,6 27 -
17:22 25,4 5,0 1,6 ZO 12,9 1025,6 27 -
17:27 25,5 5,7   Kalm 12,9 1025,6 28 -
17:32 25,6 5,2 3,2 NW 11,3 1026,0 27 -
17:37 25,6 5,7 3,2 ZZO 11,3 1025,6 28 -
17:42 25,6 6,2 1,6 NO 8,0 1025,6 29 -
17:47 25,6 6,2 6,4 OZO 8,0 1025,6 29 -
17:52 25,4 5,0 3,2 ZO 9,7 1025,6 27 -
17:57 25,4 6,1 1,6 ZZO 9,7 1025,6 29 -
18:02 25,4 6,1 1,6 Noorden 11,3 1025,6 29 -
18:07 25,4 6,1   Kalm 11,3 1025,6 29 -
18:12 25,3 6,0 6,4 NNW 14,5 1026,0 29 -
18:17 25,3 6,0 1,6 WNW 14,5 1026,0 29 -
18:22 25,2 5,9 1,6 ZZO 12,9 1026,0 29 -
18:27 25,1 5,8   Kalm 12,9 1026,0 29 -
18:32 25,1 6,3 4,8 ZZW 9,7 1026,0 30 -
18:37 24,9 6,1 1,6 Zuiden 9,7 1026,0 30 -
18:42 24,9 6,1 8,0 ZZO 11,3 1026,0 30 -
18:47 24,8 6,0 3,2 NW 11,3 1026,0 30 -
18:52 24,7 6,4 3,2 ZZO 8,0 1026,0 31 -
18:57 24,6 5,9   Kalm 8,0 1026,0 30 -
19:02 24,5 6,3 3,2 WNW 12,9 1026,0 31 -
19:07 24,4 6,2 6,4 ZZO 12,9 1026,0 31 -
19:12 24,2 6,0 3,2 OZO 12,9 1026,0 31 -
19:17 24,1 6,4 1,6 NW 12,9 1026,0 32 -
19:22 24,0 5,8 3,2 Westen 8,0 1026,0 31 -
19:27 23,8 6,1 1,6 ZW 8,0 1026,0 32 -
19:32 23,7 6,0   Kalm 8,0 1026,0 32 -
19:37 23,6 5,9 1,6 WNW 8,0 1026,0 32 -
19:42 23,5 5,9 3,2 NNW 9,7 1026,0 32 -
19:47 23,3 5,7 1,6 ZW 9,7 1026,0 32 -
19:52 23,2 6,0   Kalm 9,7 1026,0 33 -
19:57 23,0 5,9 1,6 Zuiden 8,0 1026,3 33 -
20:02 22,9 5,8 1,6 Zuiden 8,0 1026,3 33 -
20:07 22,7 6,0 1,6 ZW 6,4 1026,3 34 -
20:12 22,6 5,9   Kalm 6,4 1026,3 34 -
20:17 22,4 6,2   Kalm 6,4 1026,3 35 -
20:22 22,2 6,4 1,6 ZW 4,8 1026,3 36 -
20:27 22,0 6,2   Kalm 3,2 1026,6 36 -
20:32 21,8 6,5   Kalm 6,4 1026,6 37 -
20:37 21,6 6,3   Kalm 6,4 1026,6 37 -
20:42 21,4 6,5   Kalm 6,4 1026,6 38 -
20:47 21,2 6,3   Kalm 3,2 1026,6 38 -
20:52 20,9 6,4   Kalm   1026,6 39 -
20:57 20,7 6,2   Kalm   1026,6 39 -
21:02 20,5 6,4   Kalm   1026,6 40 -
21:07 20,3 6,6   Kalm   1026,6 41 -
Dagelijkse Samenvatting Vrijdag 19 april 2019
Tijd Temp. ( °C ) Dew pt. ( °C ) Wind ( km/h ) van Windvlaag ( km/h ) Luchtdruk ( hPa ) Humid.( % ) Rainrate ( cm )
Hoog26,3 7,0 12,9 ZO ( 178/505 ) 17,7 1027,0 65 -
Gemiddeld18,7 5,4 2,0 Kalm #138/254 7,4 1025,9 44 -
Laag10,7 4,1 -   0,0 1024,6 25 -
Dagelijkse Tabular details for Vrijdag 19 april 2019
Tijd Temp. ( °C ) Dew pt. ( °C ) Wind ( km/h ) van Windvlaag ( km/h ) Luchtdruk ( hPa ) Humid.( % ) Rainrate ( cm )
00:02 15,1 4,8   Kalm   1024,6 50 -
00:07 15,1 4,8   Kalm   1024,6 50 -
00:12 15,0 4,7   Kalm   1024,6 50 -
00:17 14,9 4,3   Kalm   1024,6 49 -
00:22 14,9 4,3 6,4 ZO 1,6 1024,6 49 -
00:27 15,1 4,5   Kalm 1,6 1024,6 49 -
00:32 15,1 4,2   Kalm 11,3 1024,6 48 -
00:37 15,2 4,3   Kalm 11,3 1024,6 48 -
00:42 15,2 4,3   Kalm 4,8 1024,9 48 -
00:47 15,2 4,3   Kalm 4,8 1024,9 48 -
00:52 15,2 4,3   Kalm 6,4 1024,9 48 -
00:57 15,2 4,3   Kalm 6,4 1024,9 48 -
01:02 15,2 4,3   Kalm 6,4 1024,9 48 -
01:07 15,2 4,3 4,8 ZO 6,4 1024,9 48 -
01:12 15,2 4,3 1,6 ZO 6,4 1024,9 48 -
01:17 15,1 4,2 1,6 ZZO 6,4 1024,9 48 -
01:22 15,1 4,2   Kalm 6,4 1024,9 48 -
01:27 15,0 4,4 1,6 ZZO 6,4 1024,9 49 -
01:32 14,9 4,3   Kalm 4,8 1024,9 49 -
01:37 14,9 4,3   Kalm 4,8 1024,9 49 -
01:42 14,8 4,2   Kalm 4,8 1024,9 49 -
01:47 14,7 4,4   Kalm   1024,9 50 -
01:52 14,7 4,4   Kalm   1024,9 50 -
01:57 14,6 4,3   Kalm 3,2 1024,9 50 -
02:02 14,6 4,3   Kalm 3,2 1024,9 50 -
02:07 14,5 4,2   Kalm 3,2 1024,9 50 -
02:12 14,4 4,1   Kalm 3,2 1024,9 50 -
02:17 14,4 4,4   Kalm 6,4 1024,9 51 -
02:22 14,3 4,3   Kalm 6,4 1024,9 51 -
02:27 14,2 4,2   Kalm 6,4 1024,9 51 -
02:32 14,2 4,2   Kalm 3,2 1024,9 51 -
02:37 14,1 4,4   Kalm 6,4 1024,9 52 -
02:42 14,0 4,3   Kalm 6,4 1024,9 52 -
02:47 13,9 4,2   Kalm 6,4 1024,9 52 -
02:52 13,8 4,4   Kalm   1024,9 53 -
02:57 13,7 4,3   Kalm   1024,9 53 -
03:02 13,6 4,2   Kalm   1024,9 53 -
03:07 13,6 4,2   Kalm   1024,9 53 -
03:12 13,4 4,3   Kalm   1024,9 54 -
03:17 13,3 4,2   Kalm   1024,9 54 -
03:22 13,2 4,4   Kalm   1024,9 55 -
03:27 13,1 4,3   Kalm   1024,9 55 -
03:32 12,9 4,1   Kalm   1024,9 55 -
03:37 12,9 4,3   Kalm   1024,9 56 -
03:42 12,8 4,2   Kalm   1024,9 56 -
03:47 12,8 4,2   Kalm   1024,9 56 -
03:52 12,8 4,2   Kalm   1024,9 56 -
03:57 12,9 4,3   Kalm   1024,9 56 -
04:02 12,9 4,3 1,6 ZZO   1024,9 56 -
04:07 13,0 4,2   Kalm 4,8 1024,9 55 -
04:12 13,0 4,2   Kalm 4,8 1024,9 55 -
04:17 13,0 4,2   Kalm 4,8 1024,9 55 -
04:22 12,9 4,3   Kalm 4,8 1024,9 56 -
04:27 12,9 4,3   Kalm 1,6 1024,9 56 -
04:32 12,8 4,2   Kalm 1,6 1024,9 56 -
04:37 12,8 4,2   Kalm   1024,9 56 -
04:42 12,7 4,4   Kalm   1025,3 57 -
04:47 12,5 4,2   Kalm   1025,3 57 -
04:52 12,4 4,1   Kalm   1025,3 57 -
04:57 12,3 4,3   Kalm   1025,3 58 -
05:02 12,2 4,4   Kalm   1025,3 59 -
05:07 12,1 4,3   Kalm   1025,3 59 -
05:12 11,9 4,4   Kalm   1025,3 60 -
05:17 11,8 4,5   Kalm 3,2 1025,3 61 -
05:22 11,7 4,4 3,2 Zuiden 3,2 1025,6 61 -
05:27 11,6 4,6   Kalm 3,2 1025,6 62 -
05:32 11,4 4,6   Kalm 3,2 1025,6 63 -
05:37 11,3 4,5   Kalm 3,2 1025,6 63 -
05:42 11,3 4,5   Kalm 3,2 1025,6 63 -
05:47 11,2 4,6   Kalm 3,2 1025,6 64 -
05:52 11,1 4,5   Kalm 3,2 1025,6 64 -
05:57 11,1 4,8   Kalm   1025,6 65 -
06:02 11,0 4,7   Kalm   1025,6 65 -
06:07 10,9 4,6   Kalm   1025,6 65 -
06:12 10,9 4,6   Kalm   1025,6 65 -
06:17 10,8 4,5   Kalm   1025,6 65 -
06:22 10,8 4,5   Kalm   1025,6 65 -
06:27 10,7 4,4   Kalm   1025,6 65 -
06:32 10,7 4,4   Kalm   1025,6 65 -
06:37 10,7 4,4   Kalm   1025,6 65 -
06:42 10,7 4,4   Kalm   1025,6 65 -
06:47 10,7 4,4   Kalm   1026,0 65 -
06:52 10,7 4,4   Kalm   1026,0 65 -
06:57 10,7 4,4   Kalm   1026,0 65 -
07:02 10,7 4,4   Kalm   1026,0 65 -
07:07 10,7 4,4   Kalm   1026,0 65 -
07:12 10,8 4,5   Kalm   1026,0 65 -
07:17 10,8 4,5   Kalm   1026,0 65 -
07:22 10,8 4,5   Kalm 1,6 1026,0 65 -
07:27 10,9 4,6   Kalm 1,6 1026,3 65 -
07:32 10,9 4,4   Kalm   1026,3 64 -
07:37 11,0 4,5   Kalm   1026,3 64 -
07:42 11,1 4,5   Kalm   1026,3 64 -
07:47 11,2 4,6   Kalm   1026,3 64 -
07:52 11,3 4,7   Kalm   1026,3 64 -
07:57 11,4 4,6   Kalm   1026,3 63 -
08:02 11,5 4,7   Kalm   1026,3 63 -
08:07 11,6 4,8 1,6 ZO   1026,3 63 -
08:12 11,8 4,8   Kalm 4,8 1026,3 62 -
08:17 11,9 4,8   Kalm 4,8 1026,3 62 -
08:22 12,1 4,8   Kalm 4,8 1026,3 61 -
08:27 12,3 5,0   Kalm 4,8 1026,6 61 -
08:32 12,6 5,0   Kalm 6,4 1026,6 60 -
08:37 12,8 5,0   Kalm 6,4 1026,6 59 -
08:42 13,0 5,2 1,6 ZO 8,0 1026,6 59 -
08:47 13,4 5,1 6,4 OZO 8,0 1026,6 57 -
08:52 13,7 5,1 3,2 ZO 8,0 1026,6 56 -
08:57 13,9 5,0 1,6 ZO 8,0 1026,6 55 -
09:02 13,9 5,0   Kalm 11,3 1026,6 55 -
09:07 13,8 4,9   Kalm 11,3 1026,6 55 -
09:12 13,7 5,1   Kalm 11,3 1026,6 56 -
09:17 13,7 5,1   Kalm 11,3 1026,6 56 -
09:22 13,8 5,2   Kalm 6,4 1026,6 56 -
09:27 13,9 5,3   Kalm 6,4 1027,0 56 -
09:32 14,1 5,5   Kalm 3,2 1026,6 56 -
09:37 14,2 5,3   Kalm 3,2 1027,0 55 -
09:42 14,4 5,5   Kalm 3,2 1027,0 55 -
09:47 14,7 5,8   Kalm 3,2 1027,0 55 -
09:52 14,9 5,7   Kalm   1027,0 54 -
09:57 15,3 6,3   Kalm   1027,0 55 -
10:02 15,9 6,3   Kalm   1027,0 53 -
10:07 16,8 6,3 4,8 ZO   1027,0 50 -
10:12 17,5 6,4 3,2 OZO 9,7 1027,0 48 -
10:17 18,1 6,3   Kalm 9,7 1027,0 46 -
10:22 18,6 6,1 3,2 ZO 12,9 1027,0 44 -
10:27 18,9 6,0 4,8 ZZO 12,9 1027,0 43 -
10:32 19,2 6,3 1,6 ZO 12,9 1027,0 43 -
10:37 19,6 6,3 1,6 ZO 12,9 1027,0 42 -
10:42 19,8 6,5   Kalm 12,9 1027,0 42 -
10:47 20,0 6,3 4,8 NO 12,9 1027,0 41 -
10:52 20,2 6,5   Kalm 9,7 1027,0 41 -
10:57 20,4 6,7   Kalm 9,7 1027,0 41 -
11:02 20,7 6,6 1,6 OZO 9,7 1027,0 40 -
11:07 20,9 6,4 9,7 ZO 9,7 1027,0 39 -
11:12 20,9 6,4 1,6 ZO 11,3 1027,0 39 -
11:17 21,1 6,6 3,2 ZO 11,3 1027,0 39 -
11:22 21,4 6,5 4,8 ZZO 11,3 1027,0 38 -
11:27 21,6 6,3 1,6 ZO 11,3 1027,0 37 -
11:32 21,8 6,5 1,6 OZO 12,9 1027,0 37 -
11:37 22,1 6,3   Kalm 12,9 1027,0 36 -
11:42 22,3 6,5   Kalm 11,3 1027,0 36 -
11:47 22,6 6,8 4,8 ZO 11,3 1026,6 36 -
11:52 22,8 6,5 3,2 ZO 12,9 1026,6 35 -
11:57 23,0 6,3 6,4 ZO 12,9 1026,6 34 -
12:02 23,2 6,5 12,9 ZO 11,3 1026,6 34 -
12:07 23,3 6,6 3,2 ZZW 11,3 1026,6 34 -
12:12 23,5 6,3 1,6 ZO 14,5 1026,6 33 -
12:17 23,4 6,2 9,7 ZO 14,5 1026,6 33 -
12:22 23,4 6,2 1,6 OZO 16,1 1026,6 33 -
12:27 23,5 6,7   Kalm 16,1 1026,6 34 -
12:32 23,6 6,4 8,0 ZO 16,1 1026,6 33 -
12:37 23,6 6,4 8,0 ZO 16,1 1026,6 33 -
12:42 23,6 6,4 6,4 ZO 16,1 1026,6 33 -
12:47 23,6 6,4 9,7 Oosten 16,1 1026,6 33 -
12:52 23,7 6,9 1,6 NW 16,1 1026,6 34 -
12:57 23,8 6,6 4,8 ZZO 16,1 1026,6 33 -
13:02 24,1 6,8 3,2 ZO 16,1 1026,6 33 -
13:07 24,0 6,7 3,2 OZO 16,1 1026,6 33 -
13:12 23,9 6,6 9,7 OZO 12,9 1026,6 33 -
13:17 23,8 7,0 1,6 ZO 12,9 1026,6 34 -
13:22 24,1 6,8 4,8 OZO 16,1 1026,6 33 -
13:27 24,2 6,9 11,3 ZO 16,1 1026,6 33 -
13:32 24,2 6,5 4,8 NW 17,7 1026,6 32 -
13:37 24,3 7,0 3,2 NW 17,7 1026,6 33 -
13:42 24,5 6,7 4,8 ZO 17,7 1026,6 32 -
13:47 24,6 6,3 1,6 Noorden 17,7 1026,6 31 -
13:52 24,7 6,4 3,2 NW 12,9 1026,3 31 -
13:57 24,7 6,4 3,2 ZZO 12,9 1026,6 31 -
14:02 24,7 6,9   Kalm 12,9 1026,3 32 -
14:07 24,9 6,6 9,7 OZO 12,9 1026,3 31 -
14:12 24,9 6,1 9,7 ZZO 17,7 1026,3 30 -
14:17 24,9 6,6 8,0 ZZO 17,7 1026,3 31 -
14:22 24,9 6,1 8,0 Oosten 12,9 1026,3 30 -
14:27 25,1 6,3 8,0 OZO 12,9 1026,6 30 -
14:32 25,3 6,5 8,0 Oosten 14,5 1026,3 30 -
14:37 25,3 6,0 1,6 OZO 14,5 1026,3 29 -
14:42 25,2 5,9 9,7 ZO 12,9 1026,6 29 -
14:47 25,1 5,8 1,6 ZO 12,9 1026,3 29 -
14:52 25,2 5,9 6,4 NO 14,5 1026,3 29 -
14:57 25,3 6,5 4,8 ZO 14,5 1026,3 30 -
15:02 25,4 6,1 1,6 ONO 14,5 1026,3 29 -
15:07 25,5 6,7 3,2 WNW 14,5 1026,3 30 -
15:12 25,7 6,8 11,3 OZO 12,9 1026,3 30 -
15:17 25,9 6,5 3,2 OZO 12,9 1026,3 29 -
15:22 25,8 6,4 3,2 WNW 11,3 1026,3 29 -
15:27 25,8 5,9 3,2 ZZO 11,3 1026,0 28 -
15:32 25,7 6,3 4,8 NNW 12,9 1026,0 29 -
15:37 25,8 6,4 8,0 NNW 12,9 1026,0 29 -
15:42 26,0 6,1 4,8 Oosten 12,9 1026,0 28 -
15:47 25,8 5,9 6,4 WNW 12,9 1026,0 28 -
15:52 25,9 6,0   Kalm 12,9 1026,0 28 -
15:57 26,1 5,6   Kalm 12,9 1026,0 27 -
16:02 26,2 5,2 1,6 OZO 12,9 1026,0 26 -
16:07 26,2 5,2   Kalm 12,9 1026,0 26 -
16:12 26,3 5,8 1,6 ZW 9,7 1026,0 27 -
16:17 26,3 4,7 1,6 ZZO 9,7 1026,0 25 -
16:22 26,1 5,6 8,0 ZO 12,9 1026,0 27 -
16:27 25,9 5,5 4,8 OZO 12,9 1026,0 27 -
16:32 25,9 6,0   Kalm 12,9 1026,0 28 -
16:37 25,9 5,5 8,0 ZO 12,9 1026,0 27 -
16:42 25,9 5,5 1,6 ZO 12,9 1026,0 27 -
16:47 25,9 5,5 6,4 OZO 12,9 1026,0 27 -
16:52 25,8 4,8 4,8 ZO 11,3 1026,0 26 -
16:57 25,7 4,8 8,0 OZO 11,3 1026,0 26 -
17:02 25,6 5,2 6,4 ZZO 11,3 1025,6 27 -
17:07 25,6 5,2 8,0 OZO 11,3 1025,6 27 -
17:12 25,6 5,2 9,7 Zuiden 9,7 1025,6 27 -
17:17 25,5 5,1 4,8 ZO 9,7 1025,6 27 -
17:22 25,4 5,0 1,6 ZO 12,9 1025,6 27 -
17:27 25,5 5,7   Kalm 12,9 1025,6 28 -
17:32 25,6 5,2 3,2 NW 11,3 1026,0 27 -
17:37 25,6 5,7 3,2 ZZO 11,3 1025,6 28 -
17:42 25,6 6,2 1,6 NO 8,0 1025,6 29 -
17:47 25,6 6,2 6,4 OZO 8,0 1025,6 29 -
17:52 25,4 5,0 3,2 ZO 9,7 1025,6 27 -
17:57 25,4 6,1 1,6 ZZO 9,7 1025,6 29 -
18:02 25,4 6,1 1,6 Noorden 11,3 1025,6 29 -
18:07 25,4 6,1   Kalm 11,3 1025,6 29 -
18:12 25,3 6,0 6,4 NNW 14,5 1026,0 29 -
18:17 25,3 6,0 1,6 WNW 14,5 1026,0 29 -
18:22 25,2 5,9 1,6 ZZO 12,9 1026,0 29 -
18:27 25,1 5,8   Kalm 12,9 1026,0 29 -
18:32 25,1 6,3 4,8 ZZW 9,7 1026,0 30 -
18:37 24,9 6,1 1,6 Zuiden 9,7 1026,0 30 -
18:42 24,9 6,1 8,0 ZZO 11,3 1026,0 30 -
18:47 24,8 6,0 3,2 NW 11,3 1026,0 30 -
18:52 24,7 6,4 3,2 ZZO 8,0 1026,0 31 -
18:57 24,6 5,9   Kalm 8,0 1026,0 30 -
19:02 24,5 6,3 3,2 WNW 12,9 1026,0 31 -
19:07 24,4 6,2 6,4 ZZO 12,9 1026,0 31 -
19:12 24,2 6,0 3,2 OZO 12,9 1026,0 31 -
19:17 24,1 6,4 1,6 NW 12,9 1026,0 32 -
19:22 24,0 5,8 3,2 Westen 8,0 1026,0 31 -
19:27 23,8 6,1 1,6 ZW 8,0 1026,0 32 -
19:32 23,7 6,0   Kalm 8,0 1026,0 32 -
19:37 23,6 5,9 1,6 WNW 8,0 1026,0 32 -
19:42 23,5 5,9 3,2 NNW 9,7 1026,0 32 -
19:47 23,3 5,7 1,6 ZW 9,7 1026,0 32 -
19:52 23,2 6,0   Kalm 9,7 1026,0 33 -
19:57 23,0 5,9 1,6 Zuiden 8,0 1026,3 33 -
20:02 22,9 5,8 1,6 Zuiden 8,0 1026,3 33 -
20:07 22,7 6,0 1,6 ZW 6,4 1026,3 34 -
20:12 22,6 5,9   Kalm 6,4 1026,3 34 -
20:17 22,4 6,2   Kalm 6,4 1026,3 35 -
20:22 22,2 6,4 1,6 ZW 4,8 1026,3 36 -
20:27 22,0 6,2   Kalm 3,2 1026,6 36 -
20:32 21,8 6,5   Kalm 6,4 1026,6 37 -
20:37 21,6 6,3   Kalm 6,4 1026,6 37 -
20:42 21,4 6,5   Kalm 6,4 1026,6 38 -
20:47 21,2 6,3   Kalm 3,2 1026,6 38 -
20:52 20,9 6,4   Kalm   1026,6 39 -
20:57 20,7 6,2   Kalm   1026,6 39 -
21:02 20,5 6,4   Kalm   1026,6 40 -
21:07 20,3 6,6   Kalm   1026,6 41 -

Download your copy of this data-set  here

Our weather-data as stored at Weather Underground. Script ontwikkeld door Jim McMurry. Aangepast voor de template door Leuven-Template.eu

U vindt ons ook hier:

Weather Underground

Apparatuur in gebruik:

Weerstation
Davis VP2

Weerprogramma
Meteohub

Weercomputer
Raspberry Pi

Webleverancier
My provider

Davis VP2

Meteohub

Raspberry Pi

My provider